Regional Weather Roundup
Issued by NWS Cleveland, OH

Home | Current Version | Previous Version | Graphics & Text | Print | Product List | Glossary On
Versions: 1 2 3 4 5 6 7 8 9 10 11 12 13 14 15 16 17 18 19 20 21 22 23 24 25 26 27 28 29 30 31 32 33 34 35 36 37 38 39 40 41 42 43 44 45 46 47 48 49 50
000
ASUS41 KCLE 291310
RWRCLE
OHIO REGIONAL WEATHER ROUNDUP
NATIONAL WEATHER SERVICE WILMINGTON, OH
900 AM EDT SAT APR 29 2017

NOTE: "FAIR" INDICATES FEW OR NO CLOUDS BELOW 12,000 FEET WITH NO
SIGNIFICANT WEATHER AND/OR OBSTRUCTIONS TO VISIBILITY.

OHZ001>008-015>018-024>027-034-035-043-044-291400-
   NORTHWEST OHIO

CITY           SKY/WX    TMP DP  RH WIND       PRES   REMARKS
DEFIANCE       CLOUDY    54  50  86 N12       30.07R
FINDLAY        LGT RAIN  57  54  89 VRB3      30.07R FOG
TOLEDO EXPRESS CLOUDY    54  53  97 NE15      30.08R
TOLEDO EXEC    CLOUDY    49  46  90 NE12G24   30.10R
LIMA           LGT RAIN  56  56 100 NE6       30.05R
$$

OHZ009>014-019>023-028>033-038-089-291400-
   NORTHEAST OHIO

CITY           SKY/WX    TMP DP  RH WIND       PRES   REMARKS
CLE-HOPKINS    FOG       53  50  89 N16       30.08F VSB 1/4
CLE-LAKEFRONT  CLOUDY    51  49  92 N17       30.08R FOG
CUY CO. ARPT     N/A     55  54  94 N9        30.08R FOG
LORAIN-ELYRIA  CLOUDY    49  45  86 NE16G23   30.08R FOG
ASHTABULA      LGT RAIN  55  54  96 N5        30.09S FOG
AKRON-CANTON   LGT RAIN  57  53  86 N7        30.06R FOG
WOOSTER        LGT RAIN  56  53  90 VRB6      30.05S
MANSFIELD      CLOUDY    56  55  97 NW3       30.08R
YOUNGSTOWN     CLOUDY    56  54  93 NE7       30.05F
$$

OHZ042-051>053-060>062-070>072-077>081-291400-
  SOUTHWEST OHIO

CITY           SKY/WX    TMP DP  RH WIND       PRES   REMARKS
CINC-COVINGTON TSTM      63  63 100 SW6       30.08R VSB 1/2
CINC-LUNKEN    TSTM      64  64 100 W26G33    30.09R FOG
HAMILTON       TSTM      64  64 100 W8G16     30.08R VSB 1/2
DAYTON         TSTM      60  60 100 W3        30.06R FOG
WRIGHT-PAT AFB TSTM      62  61  99 CALM      30.04S VSB 1
DAYTON GENERAL TSTM      63  62  97 NW9G17    30.03R VSB 1/2
WILMINGTON     TSTM      62  62 100 SE5       30.01S
$$

OHZ036-037-039>041-045>050-054>059-063>069-073>076-082>088-291400-
  CENTRAL AND SOUTHEAST OHIO

CITY           SKY/WX    TMP DP  RH WIND       PRES   REMARKS
COLUMBUS       CLOUDY    63  63 100 S6        30.07R
OSU AIRPORT    CLOUDY    62  62 100 S5        30.07R FOG
BOLTON FIELD   LGT RAIN  63  63 100 SE3       30.07R
RICKENBACK AFB RAIN      62  62 100 SE3       30.07R
NEWARK         LGT RAIN  63  60  90 S6        30.07R
MARION         LGT RAIN  59  58  96 N6        30.07R FOG
LANCASTER      RAIN      64  61  90 E3        30.08R FOG
ZANESVILLE     PTSUNNY   63  60  90 S8        30.09R
NEW PHILLY     FAIR      65  62  90 W6        30.07R
$$



USA.gov is the U.S. government's official web portal to all federal, state and local government web resources and services.